sat.trackr.live / text

‹ back to catalog

UNKNOWN

NORAD 87334

UNKNOWN UNKNOWN UNKNOWN

§ Identity

Operator
Country
Launch date
Launch site
Launch vehicle
Mass (kg)
RCS (m²)

External: N2YO · Heavens-Above

§ Orbital elements

Epoch: 2026-05-24T01:28:41.318112Z

Period
101.91 min
Inclination
89.9956°
Eccentricity
0.0068393
Mean motion
14.13075861 rev/d
Perigee alt
799.4 km
Apogee alt
898.3 km
Semi-major
7,227.0 km
B*
6.6871e-3
RAAN
271.7439°
Arg perigee
96.4922°
Mean anomaly
264.4058°
Rev number
40,952

§ Raw data

UNKNOWN1 87334U          26144.06158933  .00012788  00000+0  66871-2 0  99922 87334  89.9956 271.7439 0068393  96.4922 264.4058 14.13075861409522

JSON: /api/v1/satellites/87334 · /tle

For live sub-satellite position, see the globe view (requires WebGL).

§ Visibility from observer

Set your observer location to see the next 7 days of passes ≥ 10°. The values pass through the URL so the page stays shareable.

No JS? Fill the form by hand. The geolocation button needs JavaScript.